Zurück zum Katalog

STARLINK-37461

AktivKommunikationVLEO
NORAD 69173·PAYLOAD·🇺🇸 United States

Gestartet May 21, 2026 von Cape Canaveral Space Force Station

Loading…

Nächste Überflüge (nächste 24 Stunden)

TLE

AktuellSource: CelesTrak SupGP

Epoche: Sep 14, 2026, 23:02 UTC

1 69173C 26111AB  26257.96020833  .00011888  00000+0  35134-3 0  2571
2 69173  53.1568  91.4582 0001315  86.0952 173.2706 15.34375185    14

Verfolge STARLINK-37461 in Echtzeit mit AllMySat

Download on the App Store